Tracking 19177 objects as of 25-May-2018
HD Live streaming from Space Station
objects crossing your sky now

CZ-3B DEB

Track CZ-3B DEB now!


NORAD ID: 42463
Int'l Code: 2010-042AE
Perigee: 502.4 km
Apogee: 41,718.9 km
Inclination: 24.3 °
Period: 755.7 minutes
Semi major axis: 27481 km
RCS: Unknown
Launch date: September 4, 2010
Source: People's Republic of China (PRC)
Launch site: Xichang Space Center, China (XSC)

Note: This is SATELLITE DEBRIS
aabbcc
Your satellite tracking list
Your tracking list is empty




NASA's NSSDC Master Catalog

Two Line Element Set (TLE):
1 42463U 10042AE  18140.38389399 -.00000105  00000-0  21930-3 0  9997
2 42463  24.2692 139.1470 7498903 110.2286   2.9078  1.90563146961806
Source of the keplerian elements: AFSPC